Flag for Germany Weather past 2 weeks in Erding, Bavaria, Germany

Now
61 °F

Partly sunny.


Feels Like: 61 °F
Forecast: 39 / 45 °F
Wind: 3 mph from West

Location: Munich / Franz Josef Strauss Airport

Current Time: Oct 21, 2014 at 5:46:15 PM

Latest Report: Oct 21, 2014 at 5:20 PM


Visibility: N/A

Pressure: 29.74 "Hg

Humidity: 77%

Dew point: 54 °F

Location of ErdingLocation

Historic Weather in Erding — Graph

°F

Erding temperature yesterday

Maximum temperature yesterday: 72 °F (at 12:20 PM)
Minimum temperature yesterday: 52 °F (at 4:20 AM)
Average temperature yesterday: 61 °F

Past Weeks' High & Low Weather Summary

 TemperatureHumidityPressure
High77 °F (Oct 9, 3:20 PM)100% (Oct 6, 8:50 PM)30.27 "Hg (Oct 6, 8:50 PM)
Low39 °F (Oct 19, 7:20 AM)39% (Oct 9, 3:50 PM)29.77 "Hg (Oct 17, 7:20 AM)
Average57 °F87%29.96 "Hg
* Reported Oct 6 4:20 PM — Oct 21 4:50 PM, Erding, Weather by CustomWeather, © 2014

Note: Actual official high and low records may vary slightly from our data, if they occured in-between our weather recording intervals... More about our weather records

Advertising

Erding weather history for previous 24 hours

 ConditionsComfort  
Time TempWeatherWind HumidityBarometerVisibility
4:50 PM
Oct 21
61 °FPartly sunny.7 mph77%29.77 "HgN/A
4:20 PM63 °FScattered clouds.13 mph68%29.77 "HgN/A
3:50 PM61 °FScattered clouds.12 mph83%29.80 "HgN/A
3:20 PM59 °FSprinkles. Broken clouds.12 mph88%29.80 "HgN/A
2:50 PM59 °FBroken clouds.8 mph88%29.83 "HgN/A
2:20 PM59 °FScattered clouds.8 mph88%29.86 "HgN/A
1:50 PM55 °FSprinkles. Partly sunny.6 mph100%29.86 "HgN/A
1:20 PM57 °FSprinkles. Partly sunny.2 mph94%29.89 "HgN/A
12:50 PM55 °FRain showers. Partly sunny.3 mph88%29.89 "HgN/A
12:20 PM54 °FRain showers. Partly sunny.5 mph94%29.92 "HgN/A
11:50 AM54 °FLight rain. Partly sunny.8 mph94%29.92 "HgN/A
11:20 AM55 °FLight rain. Partly sunny.12 mph88%29.95 "Hg6 mi
10:50 AM55 °FBroken clouds.9 mph88%29.95 "HgN/A
10:20 AM55 °FScattered clouds.8 mph94%29.95 "HgN/A
9:50 AM55 °FPartly sunny.6 mph94%29.95 "HgN/A
9:20 AM54 °FLight rain. Partly sunny.2 mph94%29.95 "HgN/A
8:50 AM54 °FPartly sunny.6 mph94%29.95 "HgN/A
8:20 AM52 °FPassing clouds.5 mph100%29.95 "HgN/A
7:50 AM52 °FPartly cloudy.7 mph94%29.95 "Hg6 mi
7:20 AM52 °FPassing clouds.1 mph100%29.95 "HgN/A
6:50 AM52 °FPassing clouds.5 mph100%29.98 "HgN/A
6:20 AM52 °FPassing clouds.6 mph100%29.98 "HgN/A
5:50 AM54 °FPassing clouds.6 mph94%29.98 "HgN/A
5:20 AM52 °FPassing clouds.6 mph100%29.98 "HgN/A
4:50 AM52 °FPassing clouds.6 mph94%29.98 "HgN/A
4:20 AM54 °FPartly cloudy.5 mph94%30.01 "HgN/A
3:50 AM54 °FPartly cloudy.5 mph100%30.01 "HgN/A
3:20 AM55 °FLight rain. Partly cloudy.8 mph94%30.01 "Hg5 mi
2:50 AM55 °FRain. Partly cloudy.2 mph94%30.01 "Hg5 mi
2:20 AM55 °FRain. Passing clouds.2 mph94%30.01 "Hg5 mi
1:50 AM55 °FRain. Passing clouds.3 mph94%30.01 "Hg5 mi
1:20 AM55 °FRain. Passing clouds.6 mph94%30.01 "Hg5 mi
12:50 AM57 °FRain. Passing clouds.6 mph94%30.01 "Hg5 mi
12:20 AM57 °FRain. Passing clouds.6 mph94%30.01 "Hg5 mi
11:50 PM
Oct 20
57 °FRain. Passing clouds.5 mph94%30.04 "HgN/A
11:20 PM57 °FRain showers. Passing clouds.8 mph94%30.04 "Hg5 mi
10:50 PM57 °FSprinkles. Partly cloudy.8 mph100%30.04 "Hg5 mi
10:20 PM57 °FRain showers. Passing clouds.5 mph100%30.04 "Hg4 mi
9:50 PM59 °FSprinkles. Passing clouds.6 mph94%30.04 "HgN/A
9:20 PM59 °FSprinkles. Passing clouds.5 mph94%30.04 "HgN/A
8:50 PM59 °FLight rain. Passing clouds.3 mph94%30.04 "HgN/A
8:20 PM59 °FRain. Passing clouds.6 mph94%30.07 "HgN/A
7:50 PM61 °FRain showers. Passing clouds.6 mph94%30.07 "HgN/A
7:20 PM61 °FThunderstorms. Partly cloudy.3 mph94%30.07 "HgN/A
6:50 PM63 °FSprinkles. Broken clouds.7 mph88%30.04 "HgN/A
6:20 PM64 °FBroken clouds.5 mph78%30.04 "HgN/A
5:50 PM66 °FBroken clouds.9 mph73%30.04 "HgN/A
5:20 PM68 °FScattered showers. Broken clouds.5 mph69%30.04 "HgN/A
Weather by CustomWeather, © 2014

See weather overviewHow to use our weather pages